Regional Weather Roundup
Issued by NWS

Home | Current Version | Previous Version | Graphics & Text | Print | Product List | Glossary On
Versions: 1 2 3 4 5 6 7 8 9 10 11 12 13 14 15 16 17 18 19 20 21 22 23 24 25 26 27 28 29 30 31 32 33 34 35 36 37 38 39 40 41 42 43 44 45 46 47 48 49 50
000
ASUS43 KTOP 212359
RWRKS

WEATHER ROUNDUP FOR KANSAS
NATIONAL WEATHER SERVICE GOODLAND KS
700 PM CDT THU AUG 21 2014

NOTE:  "FAIR" INDICATES FEW OR NO CLOUDS BELOW 12,000 FEET WITH NO
SIGNIFICANT WEATHER AND/OR OBSTRUCTIONS TO VISIBILITY.

KSZ001>006-013>018-027>032-041>047-220100-
NORTHWEST KANSAS

CITY           SKY/WX    TMP DP  RH WIND       PRES   REMARKS
GOODLAND       SUNNY     92  49  22 NE8       29.97S
6HR MIN TEMP:  88; 6HR MAX TEMP:  95;

HAYS           MOSUNNY   95  64  36 S15       29.81S HX  97
HILL CITY      SUNNY     96  61  31 N7        29.83F HX  96
6HR MIN TEMP:  90; 6HR MAX TEMP:  98;

RUSSELL        MOSUNNY   95  63  34 S17G25    29.79S HX  96
6HR MIN TEMP:  94; 6HR MAX TEMP: 100;

$$

KSZ061>065-074>080-084>089-220100-
SOUTHWEST KANSAS

CITY           SKY/WX    TMP DP  RH WIND       PRES   REMARKS
DODGE CITY     MOSUNNY   94  62  34 S15G24    29.86R
6HR MIN TEMP:  87; 6HR MAX TEMP:  99; 6HR PCP:  0.03;

ELKHART          N/A     94  55  26 E3          N/A
GARDEN CITY    SUNNY     95  59  30 W7        29.88R
6HR MIN TEMP:  88; 6HR MAX TEMP:  97;

GREAT BEND     MOSUNNY   95  63  34 S16       29.81S HX  96
LIBERAL        PTSUNNY   95  57  28 S16       29.90R
$$

KSZ066>073-081>083-090>101-220100-
SOUTHEAST KANSAS

CITY           SKY/WX    TMP DP  RH WIND       PRES   REMARKS
CHANUTE        SUNNY     92  71  50 S18G28    29.91S HX  98
6HR MIN TEMP:  92; 6HR MAX TEMP:  98;

COFFEYVILLE    SUNNY     91  72  53 S16       29.90F HX  98
6HR MIN TEMP:  91; 6HR MAX TEMP:  96;

HUTCHINSON     SUNNY     97  65  34 S17G29    29.83F HX  99
6HR MIN TEMP:  96; 6HR MAX TEMP: 101;

NEWTON         SUNNY     93  66  40 S17       29.89S HX  96
PARSONS        SUNNY     91  72  53 S13G20    29.92F HX  98
6HR MIN TEMP:  91; 6HR MAX TEMP:  96;

WICHITA INTL   SUNNY     94  67  41 S20       29.84F HX  97
6HR MIN TEMP:  94; 6HR MAX TEMP:  99;

WICHITA JABRA  SUNNY     93  68  43 S20G29    29.85F HX  97
6HR MIN TEMP:  92; 6HR MAX TEMP:  96;

WINFIELD       SUNNY     93  70  46 SE15      29.88F HX  99
6HR MIN TEMP:  93; 6HR MAX TEMP:  98;

$$

KSZ007>012-019>026-033>040-048>060-102>105-220100-
NORTHEAST KANSAS

CITY           SKY/WX    TMP DP  RH WIND       PRES   REMARKS
CONCORDIA      MOSUNNY   90  69  50 S9        29.80S
6HR MIN TEMP:  90; 6HR MAX TEMP:  96;

EMPORIA        SUNNY     92  69  47 S15       29.86F HX  97
6HR MIN TEMP:  92; 6HR MAX TEMP:  97;

LAWRENCE       SUNNY     96  71  44 S18G24    29.83F HX 103
6HR MIN TEMP:  93; 6HR MAX TEMP: 101;

MANHATTAN      SUNNY     97  69  40 S13       29.80F HX 103
6HR MIN TEMP:  97; 6HR MAX TEMP: 102;

OLATHE IND     SUNNY     92  71  50 S16G23    29.87F HX  98
6HR MIN TEMP:  92; 6HR MAX TEMP:  97;

OLATHE EXE     SUNNY     91  71  51 S12       29.86F HX  97
6HR MIN TEMP:  89; 6HR MAX TEMP:  94;

SALINA         SUNNY     97  67  37 S14G28    29.80F HX 101
6HR MIN TEMP:  95; 6HR MAX TEMP: 101;

TOPEKA BILLARD SUNNY     97  69  40 S16G24    29.82F HX 103
6HR MIN TEMP:  94; 6HR MAX TEMP:  99;

TOPEKA FORBES  SUNNY     95  69  42 S18       29.84S HX 100
6HR MIN TEMP:  95; 6HR MAX TEMP: 100;

$$


USA.gov is the U.S. government's official web portal to all federal, state and local government web resources and services.